This is the latest recevied weather packets stored in our database for station/object KB0RPJ. If no packets are shown the sender has not sent any weather packets the latest 10 day(s).
| Time | Temp. | Humidity | Pressure | Rain* | Wind** | Luminosity | Snow |
|---|---|---|---|---|---|---|---|
| 1777468805 | 8.33° C | 78% | 1020.2 hPa | 0 mm | - | 104 W/m² | - |
| 1777468505 | 8.33° C | 79% | 1020.2 hPa | 0 mm | - | 80 W/m² | - |
| 1777468206 | 8.33° C | 79% | 1020 hPa | 0 mm | - | 179 W/m² | - |
| 1777465806 | 7.78° C | 80% | 1019.7 hPa | 0 mm | - | 47 W/m² | - |
| 1777465505 | 7.78° C | 80% | 1019.5 hPa | 0 mm | - | 44 W/m² | - |
| 1777465205 | 7.78° C | 81% | 1019.4 hPa | 0 mm | - | 42 W/m² | - |
| 1777462805 | 7.22° C | 83% | 1018.8 hPa | 0 mm | - | 16 W/m² | - |
| 1777462505 | 7.22° C | 82% | 1018.8 hPa | 0 mm | - | 13 W/m² | - |
| 1777462205 | 7.22° C | 82% | 1018.7 hPa | 0 mm | - | 9 W/m² | - |
| 1777461605 | 7.22° C | 83% | 1018.7 hPa | 0 mm | - | 4 W/m² | - |
| 1777461304 | 7.22° C | 83% | 1018.7 hPa | 0 mm | - | 0 W/m² | - |
| 1777460105 | 7.78° C | 83% | 1018.5 hPa | 0 mm | - | 0 W/m² | - |
| 1777459205 | 7.78° C | 82% | 1018.5 hPa | 0 mm | - | 0 W/m² | - |
| 1777458904 | 7.78° C | 82% | 1018.6 hPa | 0 mm | - | 0 W/m² | - |
| 1777458005 | 8.33° C | 82% | 1018.6 hPa | 0 mm | - | 0 W/m² | - |
| 1777457704 | 8.33° C | 82% | 1018.6 hPa | 0 mm | - | 0 W/m² | - |
| 1777457405 | 8.33° C | 82% | 1018.6 hPa | 0 mm | - | 0 W/m² | - |
| 1777457105 | 7.78° C | 82% | 1018.5 hPa | 0 mm | - | 0 W/m² | - |
| 1777456805 | 7.78° C | 82% | 1018.5 hPa | 0 mm | - | 0 W/m² | - |
| 1777456504 | 7.78° C | 82% | 1018.5 hPa | 0 mm | - | 0 W/m² | - |
| 1777455605 | 7.78° C | 83% | 1018.1 hPa | 0 mm | - | 0 W/m² | - |
| 1777455304 | 7.78° C | 83% | 1018 hPa | 0 mm | - | 0 W/m² | - |
| 1777455006 | 7.78° C | 84% | 1017.9 hPa | 0 mm | - | 0 W/m² | - |
| 1777454704 | 7.78° C | 83% | 1017.8 hPa | 0 mm | - | 0 W/m² | - |
| 1777454405 | 7.78° C | 83% | 1017.8 hPa | 0 mm | - | 0 W/m² | - |
* Rain latest hour (hover to see other rain measurements)
** Current wind speed in m/s (hover to see current wind gust speed)